Location: Blangy-Tronville
(49.8790°N, 2.4226°E)
Time: 21:52:05
(UTC+00:00)

Cosmos 540 Rocket - Pass Details

Date: 18 November 2025
Orbit: 735 x 748 km, 74.1° (Epoch: 04 December)

Event Time Altitude Azimuth Distance (km) Brightness Sun altitude
Rises 16:36:29 0° 339° (NNW) 3,203 6.7 -5.7°
Reaches altitude 10° 16:38:57 10° 345° (NNW) 2,273 5.9 -6.0°
Maximum altitude 16:43:55 47° 60° (ENE) 982 3.7 -6.8°
Drops below altitude 10° 16:48:50 10° 134° (SE) 2,251 5.7 -7.5°
Sets 16:51:15 0° 140° (SE) 3,168 6.5 -7.9°
